����������;��������(kWh)
2018-05-07 00:00;74,9
2018-05-07 00:15;74
2018-05-07 00:30;73,35
2018-05-07 00:45;75,05
2018-05-07 01:00;75,55
2018-05-07 01:15;75,15
2018-05-07 01:30;76
2018-05-07 01:45;75,35
2018-05-07 02:00;75,15
2018-05-07 02:15;75,45
2018-05-07 02:30;74,65
2018-05-07 02:45;74,55
2018-05-07 03:00;74,65
2018-05-07 03:15;74,2
2018-05-07 03:30;76,1
2018-05-07 03:45;76,2
2018-05-07 04:00;75,1
2018-05-07 04:15;75,95
2018-05-07 04:30;76,65
2018-05-07 04:45;76,55
2018-05-07 05:00;77,35
2018-05-07 05:15;79,4
2018-05-07 05:30;79,85
2018-05-07 05:45;81,1
2018-05-07 06:00;78,65
2018-05-07 06:15;77,7
2018-05-07 06:30;74,6
2018-05-07 06:45;68,25
2018-05-07 07:00;70,1
2018-05-07 07:15;72,15
2018-05-07 07:30;77,95
2018-05-07 07:45;80,95
2018-05-07 08:00;83,05
2018-05-07 08:15;88
2018-05-07 08:30;94,85
2018-05-07 08:45;98,05
2018-05-07 09:00;102,3
2018-05-07 09:15;155,1
2018-05-07 09:30;130,35
2018-05-07 09:45;123,55
2018-05-07 10:00;124,2
2018-05-07 10:15;130,95
2018-05-07 10:30;132,25
2018-05-07 10:45;132,85
2018-05-07 11:00;139,85
2018-05-07 11:15;140,4
2018-05-07 11:30;143,75
2018-05-07 11:45;147,95
2018-05-07 12:00;143,75
2018-05-07 12:15;145,7
2018-05-07 12:30;153,65
2018-05-07 12:45;148,5
2018-05-07 13:00;145,5
2018-05-07 13:15;147,4
2018-05-07 13:30;146,05
2018-05-07 13:45;147,7
2018-05-07 14:00;146,1
2018-05-07 14:15;148
2018-05-07 14:30;144,15
2018-05-07 14:45;140,15
2018-05-07 15:00;139,95
2018-05-07 15:15;138,2
2018-05-07 15:30;136,75
2018-05-07 15:45;129,35
2018-05-07 16:00;127,5
2018-05-07 16:15;120,05
2018-05-07 16:30;120,1
2018-05-07 16:45;115,7
2018-05-07 17:00;111,75
2018-05-07 17:15;112,55
2018-05-07 17:30;113,3
2018-05-07 17:45;115
2018-05-07 18:00;112,25
2018-05-07 18:15;108,15
2018-05-07 18:30;106,55
2018-05-07 18:45;109,45
2018-05-07 19:00;107,1
2018-05-07 19:15;105,75
2018-05-07 19:30;109,55
2018-05-07 19:45;105,85
2018-05-07 20:00;109,4
2018-05-07 20:15;105,75
2018-05-07 20:30;110,9
2018-05-07 20:45;109,55
2018-05-07 21:00;108,55
2018-05-07 21:15;103,2
2018-05-07 21:30;103,4
2018-05-07 21:45;98,4
2018-05-07 22:00;96,9
2018-05-07 22:15;92,75
2018-05-07 22:30;90,25
2018-05-07 22:45;86,7
2018-05-07 23:00;86,15
2018-05-07 23:15;85
2018-05-07 23:30;85,45
2018-05-07 23:45;86,7
2018-05-08 00:00;81,85
2018-05-08 00:15;82
2018-05-08 00:30;81,25
2018-05-08 00:45;81,8
2018-05-08 01:00;81,25
2018-05-08 01:15;81,5
2018-05-08 01:30;81,55
2018-05-08 01:45;81,55
2018-05-08 02:00;81,65
2018-05-08 02:15;80,2
2018-05-08 02:30;80,1
2018-05-08 02:45;79,5
2018-05-08 03:00;79,5
2018-05-08 03:15;79,85
2018-05-08 03:30;79,9
2018-05-08 03:45;80,9
2018-05-08 04:00;80,2
2018-05-08 04:15;79,8
2018-05-08 04:30;80,95
2018-05-08 04:45;78,6
2018-05-08 05:00;77,8
2018-05-08 05:15;78,7
2018-05-08 05:30;80,6
2018-05-08 05:45;82,3
2018-05-08 06:00;80,3
2018-05-08 06:15;82,05
2018-05-08 06:30;77,85
2018-05-08 06:45;75
2018-05-08 07:00;75
2018-05-08 07:15;76,25
2018-05-08 07:30;79,5
2018-05-08 07:45;83,65
2018-05-08 08:00;84,7
2018-05-08 08:15;86,6
2018-05-08 08:30;90,35
2018-05-08 08:45;91,6
2018-05-08 09:00;94,25
2018-05-08 09:15;149,5
2018-05-08 09:30;124,45
2018-05-08 09:45;116,55
2018-05-08 10:00;116
2018-05-08 10:15;123,5
2018-05-08 10:30;129,6
2018-05-08 10:45;138,3
2018-05-08 11:00;133,5
2018-05-08 11:15;138,7
2018-05-08 11:30;140,3
2018-05-08 11:45;142,8
2018-05-08 12:00;143,2
2018-05-08 12:15;141,8
2018-05-08 12:30;152,15
2018-05-08 12:45;148,85
2018-05-08 13:00;151,2
2018-05-08 13:15;148,55
2018-05-08 13:30;152,95
2018-05-08 13:45;156,25
2018-05-08 14:00;160
2018-05-08 14:15;155,2
2018-05-08 14:30;149,6
2018-05-08 14:45;152
2018-05-08 15:00;153,2
2018-05-08 15:15;151,25
2018-05-08 15:30;145,75
2018-05-08 15:45;141,65
2018-05-08 16:00;139,8
2018-05-08 16:15;128,25
2018-05-08 16:30;125,45
2018-05-08 16:45;129,35
2018-05-08 17:00;114,4
2018-05-08 17:15;111,35
2018-05-08 17:30;116,2
2018-05-08 17:45;111,15
2018-05-08 18:00;113,45
2018-05-08 18:15;102,4
2018-05-08 18:30;107,35
2018-05-08 18:45;107,05
2018-05-08 19:00;105,55
2018-05-08 19:15;111,05
2018-05-08 19:30;102,3
2018-05-08 19:45;101,95
2018-05-08 20:00;101,6
2018-05-08 20:15;100,5
2018-05-08 20:30;103,15
2018-05-08 20:45;104,5
2018-05-08 21:00;101,85
2018-05-08 21:15;98,25
2018-05-08 21:30;96,6
2018-05-08 21:45;94,85
2018-05-08 22:00;89,15
2018-05-08 22:15;88,8
2018-05-08 22:30;84,9
2018-05-08 22:45;84,7
2018-05-08 23:00;82,95
2018-05-08 23:15;81,35
2018-05-08 23:30;79,55
2018-05-08 23:45;80,15
2018-05-09 00:00;77,5
2018-05-09 00:15;77,6
2018-05-09 00:30;76,1
2018-05-09 00:45;78,1
2018-05-09 01:00;80,1
2018-05-09 01:15;81,3
2018-05-09 01:30;80,9
2018-05-09 01:45;77,65
2018-05-09 02:00;77,5
2018-05-09 02:15;77,8
2018-05-09 02:30;78,2
2018-05-09 02:45;77,65
2018-05-09 03:00;76,9
2018-05-09 03:15;76,65
2018-05-09 03:30;77,6
2018-05-09 03:45;78
2018-05-09 04:00;78,85
2018-05-09 04:15;77,95
2018-05-09 04:30;78,95
2018-05-09 04:45;80,05
2018-05-09 05:00;79,6
2018-05-09 05:15;81,65
2018-05-09 05:30;81,3
2018-05-09 05:45;84
2018-05-09 06:00;82,55
2018-05-09 06:15;83,05
2018-05-09 06:30;78,15
2018-05-09 06:45;71,8
2018-05-09 07:00;74,15
2018-05-09 07:15;74,3
2018-05-09 07:30;74,95
2018-05-09 07:45;80,9
2018-05-09 08:00;82,6
2018-05-09 08:15;82,85
2018-05-09 08:30;86,15
2018-05-09 08:45;94,95
2018-05-09 09:00;101,15
2018-05-09 09:15;151,3
2018-05-09 09:30;117,75
2018-05-09 09:45;124,55
2018-05-09 10:00;124
2018-05-09 10:15;130,45
2018-05-09 10:30;137,5
2018-05-09 10:45;130,95
2018-05-09 11:00;134,3
2018-05-09 11:15;140,75
2018-05-09 11:30;143,25
2018-05-09 11:45;147,2
2018-05-09 12:00;144,25
2018-05-09 12:15;142,35
2018-05-09 12:30;146,6
2018-05-09 12:45;150,4
2018-05-09 13:00;151,3
2018-05-09 13:15;154,2
2018-05-09 13:30;154,4
2018-05-09 13:45;146,15
2018-05-09 14:00;150,05
2018-05-09 14:15;156,55
2018-05-09 14:30;149,55
2018-05-09 14:45;141,75
2018-05-09 15:00;140,75
2018-05-09 15:15;142,95
2018-05-09 15:30;136
2018-05-09 15:45;128,4
2018-05-09 16:00;132,8
2018-05-09 16:15;127,7
2018-05-09 16:30;128,15
2018-05-09 16:45;115,35
2018-05-09 17:00;114,2
2018-05-09 17:15;115,5
2018-05-09 17:30;117,4
2018-05-09 17:45;119,2
2018-05-09 18:00;113,05
2018-05-09 18:15;115,75
2018-05-09 18:30;107,55
2018-05-09 18:45;108,6
2018-05-09 19:00;114,45
2018-05-09 19:15;110,7
2018-05-09 19:30;108,9
2018-05-09 19:45;107,5
2018-05-09 20:00;106,6
2018-05-09 20:15;106,1
2018-05-09 20:30;110,4
2018-05-09 20:45;111,3
2018-05-09 21:00;108,85
2018-05-09 21:15;105,75
2018-05-09 21:30;102,2
2018-05-09 21:45;98,1
2018-05-09 22:00;95,3
2018-05-09 22:15;93,8
2018-05-09 22:30;91,1
2018-05-09 22:45;88,9
2018-05-09 23:00;86,45
2018-05-09 23:15;83,35
2018-05-09 23:30;80,5
2018-05-09 23:45;79,15
2018-05-10 00:00;78,1
2018-05-10 00:15;77,45
2018-05-10 00:30;78,35
2018-05-10 00:45;78,7
2018-05-10 01:00;78,1
2018-05-10 01:15;76,85
2018-05-10 01:30;76,7
2018-05-10 01:45;76,6
2018-05-10 02:00;78
2018-05-10 02:15;76,2
2018-05-10 02:30;75,75
2018-05-10 02:45;75,3
2018-05-10 03:00;75,65
2018-05-10 03:15;75,55
2018-05-10 03:30;76,25
2018-05-10 03:45;76,4
2018-05-10 04:00;76,85
2018-05-10 04:15;75,45
2018-05-10 04:30;77,9
2018-05-10 04:45;81
2018-05-10 05:00;85,2
2018-05-10 05:15;85,45
2018-05-10 05:30;85,05
2018-05-10 05:45;86,25
2018-05-10 06:00;85,55
2018-05-10 06:15;80,25
2018-05-10 06:30;80
2018-05-10 06:45;77,05
2018-05-10 07:00;78,3
2018-05-10 07:15;79
2018-05-10 07:30;78,25
2018-05-10 07:45;81,35
2018-05-10 08:00;88
2018-05-10 08:15;89,8
2018-05-10 08:30;91,3
2018-05-10 08:45;93,95
2018-05-10 09:00;99,65
2018-05-10 09:15;147,85
2018-05-10 09:30;119,45
2018-05-10 09:45;117,9
2018-05-10 10:00;126
2018-05-10 10:15;129,6
2018-05-10 10:30;131,05
2018-05-10 10:45;134,2
2018-05-10 11:00;134,75
2018-05-10 11:15;144,1
2018-05-10 11:30;149,5
2018-05-10 11:45;147,2
2018-05-10 12:00;155,25
2018-05-10 12:15;154,05
2018-05-10 12:30;151,5
2018-05-10 12:45;152,6
2018-05-10 13:00;152,15
2018-05-10 13:15;158,45
2018-05-10 13:30;156,25
2018-05-10 13:45;153,4
2018-05-10 14:00;159,6
2018-05-10 14:15;155,95
2018-05-10 14:30;152,4
2018-05-10 14:45;146,7
2018-05-10 15:00;144,55
2018-05-10 15:15;145,5
2018-05-10 15:30;139,15
2018-05-10 15:45;133,25
2018-05-10 16:00;141,4
2018-05-10 16:15;125,25
2018-05-10 16:30;127,35
2018-05-10 16:45;124,15
2018-05-10 17:00;117,6
2018-05-10 17:15;121,4
2018-05-10 17:30;110,25
2018-05-10 17:45;114
2018-05-10 18:00;109,8
2018-05-10 18:15;112,45
2018-05-10 18:30;103
2018-05-10 18:45;107,1
2018-05-10 19:00;102,85
2018-05-10 19:15;101,55
2018-05-10 19:30;103,3
2018-05-10 19:45;104
2018-05-10 20:00;101,5
2018-05-10 20:15;100,1
2018-05-10 20:30;103,2
2018-05-10 20:45;102,8
2018-05-10 21:00;101,65
2018-05-10 21:15;98,05
2018-05-10 21:30;97,25
2018-05-10 21:45;94,25
2018-05-10 22:00;90
2018-05-10 22:15;89
2018-05-10 22:30;86,5
2018-05-10 22:45;86,7
2018-05-10 23:00;86,8
2018-05-10 23:15;84,3
2018-05-10 23:30;82,4
2018-05-10 23:45;82,4
2018-05-11 00:00;82,1
2018-05-11 00:15;82,55
2018-05-11 00:30;81,85
2018-05-11 00:45;83,5
2018-05-11 01:00;84,3
2018-05-11 01:15;83,75
2018-05-11 01:30;82,7
2018-05-11 01:45;82,75
2018-05-11 02:00;84
2018-05-11 02:15;82,75
2018-05-11 02:30;83,05
2018-05-11 02:45;81,25
2018-05-11 03:00;79,4
2018-05-11 03:15;79,15
2018-05-11 03:30;80,4
2018-05-11 03:45;80,65
2018-05-11 04:00;80,25
2018-05-11 04:15;79,2
2018-05-11 04:30;79,9
2018-05-11 04:45;80,55
2018-05-11 05:00;81,2
2018-05-11 05:15;82,15
2018-05-11 05:30;85,1
2018-05-11 05:45;84,2
2018-05-11 06:00;82,4
2018-05-11 06:15;81,2
2018-05-11 06:30;76,25
2018-05-11 06:45;74,8
2018-05-11 07:00;72,8
2018-05-11 07:15;74,45
2018-05-11 07:30;77,8
2018-05-11 07:45;80,2
2018-05-11 08:00;84,25
2018-05-11 08:15;91,15
2018-05-11 08:30;91,3
2018-05-11 08:45;95
2018-05-11 09:00;99,7
2018-05-11 09:15;147,35
2018-05-11 09:30;113,35
2018-05-11 09:45;117,05
2018-05-11 10:00;116,85
2018-05-11 10:15;120,7
2018-05-11 10:30;127,25
2018-05-11 10:45;132,45
2018-05-11 11:00;134,3
2018-05-11 11:15;134,7
2018-05-11 11:30;147,3
2018-05-11 11:45;141,9
2018-05-11 12:00;147
2018-05-11 12:15;150,4
2018-05-11 12:30;144,8
2018-05-11 12:45;148,7
2018-05-11 13:00;147,55
2018-05-11 13:15;146,1
2018-05-11 13:30;146,25
2018-05-11 13:45;153
2018-05-11 14:00;148,75
2018-05-11 14:15;151
2018-05-11 14:30;146,6
2018-05-11 14:45;143,85
2018-05-11 15:00;141,2
2018-05-11 15:15;140,4
2018-05-11 15:30;135,2
2018-05-11 15:45;133,35
2018-05-11 16:00;129,25
2018-05-11 16:15;121,8
2018-05-11 16:30;118,9
2018-05-11 16:45;115,15
2018-05-11 17:00;120,65
2018-05-11 17:15;118
2018-05-11 17:30;113
2018-05-11 17:45;115,55
2018-05-11 18:00;116,5
2018-05-11 18:15;114,3
2018-05-11 18:30;107,9
2018-05-11 18:45;108,15
2018-05-11 19:00;103,1
2018-05-11 19:15;106,45
2018-05-11 19:30;98
2018-05-11 19:45;101,75
2018-05-11 20:00;97,1
2018-05-11 20:15;96,3
2018-05-11 20:30;100,75
2018-05-11 20:45;103,25
2018-05-11 21:00;102,25
2018-05-11 21:15;100,15
2018-05-11 21:30;98,7
2018-05-11 21:45;97,25
2018-05-11 22:00;91,5
2018-05-11 22:15;87,45
2018-05-11 22:30;85,7
2018-05-11 22:45;86,1
2018-05-11 23:00;85,95
2018-05-11 23:15;81,2
2018-05-11 23:30;80,25
2018-05-11 23:45;80,4
2018-05-12 00:00;79,95
2018-05-12 00:15;78,05
2018-05-12 00:30;78,5
2018-05-12 00:45;79,6
2018-05-12 01:00;76,45
2018-05-12 01:15;78,75
2018-05-12 01:30;77,9
2018-05-12 01:45;76,65
2018-05-12 02:00;78,2
2018-05-12 02:15;77,4
2018-05-12 02:30;77,35
2018-05-12 02:45;78
2018-05-12 03:00;77,15
2018-05-12 03:15;75,35
2018-05-12 03:30;73,7
2018-05-12 03:45;75,9
2018-05-12 04:00;74,35
2018-05-12 04:15;74,45
2018-05-12 04:30;75,55
2018-05-12 04:45;75,65
2018-05-12 05:00;74,4
2018-05-12 05:15;76,5
2018-05-12 05:30;74,55
2018-05-12 05:45;75,2
2018-05-12 06:00;77,35
2018-05-12 06:15;76,6
2018-05-12 06:30;74,65
2018-05-12 06:45;70,75
2018-05-12 07:00;70,2
2018-05-12 07:15;70,35
2018-05-12 07:30;68,75
2018-05-12 07:45;65,95
2018-05-12 08:00;68,15
2018-05-12 08:15;67,25
2018-05-12 08:30;67,55
2018-05-12 08:45;70,05
2018-05-12 09:00;68,45
2018-05-12 09:15;69,2
2018-05-12 09:30;71,7
2018-05-12 09:45;69,5
2018-05-12 10:00;69,85
2018-05-12 10:15;72,25
2018-05-12 10:30;71,95
2018-05-12 10:45;74,15
2018-05-12 11:00;77,2
2018-05-12 11:15;76,9
2018-05-12 11:30;81,25
2018-05-12 11:45;78,3
2018-05-12 12:00;77,8
2018-05-12 12:15;79,15
2018-05-12 12:30;76,9
2018-05-12 12:45;78,5
2018-05-12 13:00;80,4
2018-05-12 13:15;78,05
2018-05-12 13:30;80,15
2018-05-12 13:45;80,6
2018-05-12 14:00;79,95
2018-05-12 14:15;81,2
2018-05-12 14:30;80,05
2018-05-12 14:45;79,2
2018-05-12 15:00;80,85
2018-05-12 15:15;81,65
2018-05-12 15:30;83,35
2018-05-12 15:45;83
2018-05-12 16:00;81,25
2018-05-12 16:15;78,7
2018-05-12 16:30;75,55
2018-05-12 16:45;74,45
2018-05-12 17:00;75,45
2018-05-12 17:15;74,85
2018-05-12 17:30;77
2018-05-12 17:45;78,8
2018-05-12 18:00;74,7
2018-05-12 18:15;74,45
2018-05-12 18:30;78,15
2018-05-12 18:45;78,2
2018-05-12 19:00;79,75
2018-05-12 19:15;81,5
2018-05-12 19:30;80,65
2018-05-12 19:45;84
2018-05-12 20:00;84,9
2018-05-12 20:15;83,5
2018-05-12 20:30;84,9
2018-05-12 20:45;87,95
2018-05-12 21:00;88,5
2018-05-12 21:15;89,1
2018-05-12 21:30;89,25
2018-05-12 21:45;83,9
2018-05-12 22:00;83,8
2018-05-12 22:15;79,9
2018-05-12 22:30;78,5
2018-05-12 22:45;79
2018-05-12 23:00;77
2018-05-12 23:15;75,5
2018-05-12 23:30;75,85
2018-05-12 23:45;74,3
2018-05-13 00:00;73,25
2018-05-13 00:15;73,2
2018-05-13 00:30;72,55
2018-05-13 00:45;73,35
2018-05-13 01:00;73,4
2018-05-13 01:15;75,45
2018-05-13 01:30;76,35
2018-05-13 01:45;76,05
2018-05-13 02:00;77,45
2018-05-13 02:15;76,4
2018-05-13 02:30;76,45
2018-05-13 02:45;77,95
2018-05-13 03:00;76,9
2018-05-13 03:15;77,55
2018-05-13 03:30;77,55
2018-05-13 03:45;78,05
2018-05-13 04:00;77,35
2018-05-13 04:15;76,4
2018-05-13 04:30;78,75
2018-05-13 04:45;78,05
2018-05-13 05:00;79,4
2018-05-13 05:15;78,35
2018-05-13 05:30;78,25
2018-05-13 05:45;80
2018-05-13 06:00;81,2
2018-05-13 06:15;78,2
2018-05-13 06:30;73,5
2018-05-13 06:45;70,25
2018-05-13 07:00;70,15
2018-05-13 07:15;69
2018-05-13 07:30;70,5
2018-05-13 07:45;70
2018-05-13 08:00;69,3
2018-05-13 08:15;68,7
2018-05-13 08:30;69,3
2018-05-13 08:45;68,7
2018-05-13 09:00;69,9
2018-05-13 09:15;69
2018-05-13 09:30;69,4
2018-05-13 09:45;70,2
2018-05-13 10:00;69,35
2018-05-13 10:15;69,45
2018-05-13 10:30;71,15
2018-05-13 10:45;70,5
2018-05-13 11:00;72,55
2018-05-13 11:15;73,9
2018-05-13 11:30;72,9
2018-05-13 11:45;74,95
2018-05-13 12:00;72,45
2018-05-13 12:15;71,55
2018-05-13 12:30;73,95
2018-05-13 12:45;73,55
2018-05-13 13:00;73,7
2018-05-13 13:15;74,8
2018-05-13 13:30;77,6
2018-05-13 13:45;79,4
2018-05-13 14:00;73,8
2018-05-13 14:15;80,55
2018-05-13 14:30;76,3
2018-05-13 14:45;76,35
2018-05-13 15:00;80,05
2018-05-13 15:15;78,95
2018-05-13 15:30;79,25
2018-05-13 15:45;77,45
2018-05-13 16:00;74,6
2018-05-13 16:15;73,1
2018-05-13 16:30;72,5
2018-05-13 16:45;74,8
2018-05-13 17:00;72,9
2018-05-13 17:15;74,95
2018-05-13 17:30;75,7
2018-05-13 17:45;76,4
2018-05-13 18:00;78,65
2018-05-13 18:15;77,25
2018-05-13 18:30;77,15
2018-05-13 18:45;78,4
2018-05-13 19:00;78,65
2018-05-13 19:15;78,1
2018-05-13 19:30;82,55
2018-05-13 19:45;83,3
2018-05-13 20:00;85,15
2018-05-13 20:15;86,85
2018-05-13 20:30;92,25
2018-05-13 20:45;94
2018-05-13 21:00;93
2018-05-13 21:15;93,45
2018-05-13 21:30;91,5
2018-05-13 21:45;90,15
2018-05-13 22:00;88
2018-05-13 22:15;82,95
2018-05-13 22:30;82,75
2018-05-13 22:45;83,1
2018-05-13 23:00;82,7
2018-05-13 23:15;82,35
2018-05-13 23:30;77,35
2018-05-13 23:45;76,85

